Location: 22
(39.7117°N, 89.5929°W)
Time: 04:36:35
(UTC-06:00)

Altair - All Passes

Search period start: 28 January 2023 00:00
Search period end: 07 February 2023 00:00
Orbit: 1501 x 1683 km, 47.2° (Epoch: 27 January)

Date Brightness Start Highest point End Pass type
(mag) Time Alt. Az. Time Alt. Az. Time Alt. Az.
28 Jan - 01:44:41 10° WNW 01:54:52 73° NNE 02:05:02 10° ESE visible
28 Jan - 03:49:55 10° WNW 03:59:37 52° SW 04:09:11 10° SSE visible
28 Jan - 05:58:50 10° W 06:02:40 13° WSW 06:06:29 10° SW visible
28 Jan - 19:04:53 10° SSW 19:13:28 38° SE 19:22:21 10° ENE visible
28 Jan - 21:07:49 10° WSW 21:17:40 85° NNW 21:27:51 10° ENE visible
28 Jan - 23:13:38 10° W 23:23:27 57° N 23:33:28 10° ENE visible
29 Jan - 01:19:26 10° WNW 01:29:35 70° NNE 01:39:44 10° ESE visible
29 Jan - 03:24:37 10° WNW 03:34:27 56° SW 03:44:09 10° SSE visible
29 Jan - 05:32:41 10° W 05:37:37 15° WSW 05:42:31 10° SSW visible
29 Jan - 18:40:02 10° SSW 18:48:22 35° SE 18:56:58 10° ENE visible
29 Jan - 20:42:37 10° WSW 20:52:25 89° NW 21:02:35 10° ENE visible
29 Jan - 22:48:20 10° W 22:58:07 57° N 23:08:08 10° ENE visible
30 Jan - 00:54:10 10° WNW 01:04:17 68° NNE 01:14:25 10° ESE visible
30 Jan - 02:59:20 10° WNW 03:09:16 60° SW 03:19:05 10° SE visible
30 Jan - 05:06:47 10° W 05:12:34 17° WSW 05:18:18 10° SSW visible
30 Jan - 18:15:13 10° S 18:23:16 32° SE 18:31:34 10° ENE visible
30 Jan - 20:17:26 10° WSW 20:27:11 87° SSE 20:37:20 10° ENE visible
30 Jan - 22:23:01 10° W 22:32:47 58° N 22:42:49 10° ENE visible
31 Jan - 00:28:55 10° WNW 00:38:58 66° NNE 00:49:06 10° E night (unlit)
31 Jan - 02:34:04 10° WNW 02:44:05 65° SW 02:54:00 10° SE visible
31 Jan - 04:41:03 10° W 04:47:30 19° SW 04:53:54 10° SSW visible
31 Jan - 17:50:28 10° S 17:58:11 29° SE 18:06:08 10° ENE visible
31 Jan - 19:52:17 10° SW 20:01:58 83° SSE 20:12:04 10° ENE visible
31 Jan - 21:57:43 10° W 22:07:28 59° N 22:17:30 10° ENE visible
01 Feb - 00:03:40 10° WNW 00:13:40 64° NNE 00:23:46 10° E night (unlit)
01 Feb - 02:08:49 10° WNW 02:18:53 69° SW 02:28:53 10° SE visible
01 Feb - 04:15:25 10° W 04:22:25 22° SW 04:29:23 10° S visible
01 Feb - 17:25:46 10° S 17:33:07 26° SE 17:40:40 10° ENE daylight
01 Feb - 19:27:08 10° SW 19:36:46 78° SE 19:46:48 10° ENE visible
01 Feb - 21:32:25 10° W 21:42:09 60° NNW 21:52:11 10° ENE visible
01 Feb - 23:38:24 10° WNW 23:48:21 62° NNE 23:58:26 10° E visible
02 Feb - 01:43:35 10° WNW 01:53:40 74° SW 02:03:45 10° SE visible
02 Feb - 03:49:51 10° WNW 03:57:20 24° SW 04:04:47 10° S visible
02 Feb - 17:01:08 10° S 17:08:03 23° SE 17:15:09 10° E daylight
02 Feb - 19:02:01 10° SW 19:11:34 74° SE 19:21:32 10° ENE visible
02 Feb - 21:07:07 10° W 21:16:50 61° NNW 21:26:52 10° ENE visible
02 Feb - 23:13:07 10° WNW 23:23:02 61° NNE 23:33:05 10° E visible
03 Feb - 01:18:20 10° WNW 01:28:27 78° SW 01:38:35 10° SE night (unlit)
03 Feb - 03:24:21 10° WNW 03:32:15 27° SW 03:40:05 10° S visible
03 Feb - 16:36:35 10° SSE 16:43:00 21° SE 16:49:34 10° E daylight
03 Feb - 18:36:56 10° SW 18:46:24 69° SE 18:56:15 10° ENE visible
03 Feb - 20:41:50 10° W 20:51:32 63° NNW 21:01:33 10° ENE visible
03 Feb - 22:47:51 10° WNW 22:57:42 59° N 23:07:44 10° E visible
04 Feb - 00:53:05 10° WNW 01:03:14 82° SSW 01:13:24 10° SE night (unlit)
04 Feb - 02:58:54 10° WNW 03:07:09 29° SW 03:15:21 10° S visible
04 Feb - 16:12:06 10° SSE 16:17:57 18° SE 16:23:55 10° E daylight
04 Feb - 18:11:51 10° SW 18:21:13 65° SE 18:30:59 10° ENE visible
04 Feb - 20:16:34 10° W 20:26:14 65° NNW 20:36:16 10° ENE visible
04 Feb - 22:22:35 10° WNW 22:32:22 58° N 22:42:23 10° E visible
05 Feb - 00:27:51 10° WNW 00:37:59 86° SSW 00:48:11 10° SE night (unlit)
05 Feb - 02:33:30 10° WNW 02:42:02 32° SW 02:50:33 10° S night (unlit)
05 Feb - 15:47:47 10° SSE 15:52:55 16° ESE 15:58:08 10° E daylight
05 Feb - 17:46:48 10° SW 17:56:04 60° SE 18:05:43 10° ENE visible
05 Feb - 19:51:18 10° W 20:00:56 67° NNW 20:10:59 10° ENE visible
05 Feb - 21:57:18 10° WNW 22:07:03 57° N 22:17:02 10° E visible
06 Feb - 00:02:37 10° WNW 00:12:45 89° NNE 00:22:58 10° ESE visible
06 Feb - 02:08:07 10° WNW 02:16:55 35° SW 02:25:43 10° SSE night (unlit)
06 Feb - 15:23:39 10° SSE 15:27:53 14° ESE 15:32:11 10° E daylight
06 Feb - 17:21:47 10° SSW 17:30:55 56° SE 17:40:25 10° ENE daylight
06 Feb - 19:26:03 10° WSW 19:35:40 69° NNW 19:45:41 10° ENE visible
06 Feb - 21:32:01 10° WNW 21:41:43 57° N 21:51:40 10° E visible
